Printer-friendly version
Follow the MPC on Twitter Follow the MPC on Facebook The MPC blog
Minor Planet Center

MPEC 2010-P39 : 2010 PM10

The following Minor Planet Electronic Circular may be linked-to from your own Web pages, but must not otherwise be redistributed electronically.

A form allowing access to any MPEC is at the bottom of this page.


Read MPEC 2010-P38 Read MPEC 2010-P40


M.P.E.C. 2010-P39                                Issued 2010 Aug. 8, 01:03 UT

     The Minor Planet Electronic Circulars contain information on unusual
         minor planets and routine data on comets.  They are published
   on behalf of Commission 20 of the International Astronomical Union by the
          Minor Planet Center, Smithsonian Astrophysical Observatory,
                          Cambridge, MA 02138, U.S.A.

             Prepared using the Tamkin Foundation Computer Network

                              MPC@CFA.HARVARD.EDU
       URL http://www.minorplanetcenter.org/iau/mpc.html  ISSN 1523-6714

                                   2010 PM10

Observations:
     K10P10M* C2010 08 06.38078 23 54 09.81 +00 42 12.1          19.4   EP039704
     K10P10M  C2010 08 06.39233 23 54 11.25 +00 42 24.7          19.9   EP039704
     K10P10M  C2010 08 06.41540 23 54 14.07 +00 42 50.6          20.2   EP039704
     K10P10M  C2010 08 06.42693 23 54 15.45 +00 43 04.8          19.8   EP039704
     K10P10M KC2010 08 07.02599 23 55 33.85 +00 54 18.5                 EP039204
     K10P10M KC2010 08 07.03413 23 55 34.87 +00 54 27.7                 EP039204
     K10P10M KC2010 08 07.04258 23 55 35.90 +00 54 37.3          19.3 C EP039204
     K10P10M  C2010 08 07.23414123 56 01.30 +00 58 16.3          19.4 V EP039H21
     K10P10M  C2010 08 07.24312923 56 02.44 +00 58 26.8          19.2 V EP039H21
     K10P10M IC2010 08 07.35989 23 56 17.11 +01 00 39.1          19.1 C EP039H36
     K10P10M KC2010 08 07.36444 23 56 17.62 +01 00 44.7          19.6 C EP039H36
     K10P10M KC2010 08 07.37126 23 56 18.51 +01 00 52.4          19.8 C EP039H36
     K10P10M 4C2010 08 07.41512723 56 24.33 +01 01 44.0          19.2 R EP039673
     K10P10M 4C2010 08 07.41708323 56 24.54 +01 01 46.4          19.2 R EP039673
     K10P10M 4C2010 08 07.41894723 56 24.81 +01 01 48.4          19.4 R EP039673
     K10P10M 4C2010 08 07.42048623 56 24.96 +01 01 50.3          19.2 R EP039673
     K10P10M KC2010 08 07.87726 23 57 23.67 +01 10 55.9          19.4 R EP039D21
     K10P10M KC2010 08 07.89025 23 57 25.31 +01 11 10.7          19.7 R EP039D21
     K10P10M KC2010 08 07.90329 23 57 26.87 +01 11 24.9          19.0 R EP039D21
     K10P10M KC2010 08 07.97050 23 57 37.10 +01 12 14.6          20.1 V EP039151
     K10P10M KC2010 08 07.97340 23 57 37.49 +01 12 18.2          20.3 V EP039151

Observer details:
151 Eschenberg Observatory, Winterthur.  Observer M. Griesser.  0.40-m f/5.9
    Hypergraph + CCD.
204 Schiaparelli Observatory.  Observer L. Buzzi.  0.60-m f/4.64 reflector
    + CCD.
673 Table Mountain Observatory, Wrightwood.  Observers M. Hicks, T. Truong.
    Measurer M. Hicks.
704 Lincoln Laboratory ETS, New Mexico.  Observers M. Blythe, G. Spitz,
    R. Brungard, J. Paige, P. Festler.  1.0-m f/2.15 reflector + CCD.
D21 Shenton Park.  Observers P. Luckas, P. R. Holvorcem.  Measurer
    P. R. Holvorcem.  0.35-m f/8.6 Schmidt-Cassegrain + CCD.
H21 Astronomical Research Observatory, Westfield.  Observer R. Holmes.
    Measurer S. Foglia.
H36 Sandlot Observatory, Scranton.  Observer G. Hug.  0.56-m reflector + CCD.

Orbital elements:
2010 PM10                                                Earth MOID = 0.2130 AU
Epoch 2010 July 23.0 TT = JDT 2455400.5                 MPC
M 337.58234              (2000.0)            P               Q
n   0.32247799     Peri.   60.81604     +0.97876759     -0.20410637
a   2.1060532      Node   310.95445     +0.17833674     +0.89326249
e   0.4247585      Incl.    1.42873     +0.10104457     +0.40052805
P   3.06           H   19.7           G   0.15           U   8
Residuals in seconds of arc
100806 704  0.3-  0.4+    100807 H21  0.4-  0.4-    100807 673  0.5+  0.2-
100806 704  0.1+  0.0     100807 H21  0.2-  0.1-    100807 673  0.0   0.1-
100806 704  0.0   0.2-    100807 H36  0.8+  0.9-    100807 D21  0.1-  0.4+
100806 704  0.4-  1.0+    100807 H36  0.0   0.5-    100807 D21  0.4+  0.4+
100807 204  0.0   0.0     100807 H36  0.8+  0.6-    100807 D21  0.5-  0.3-
100807 204  0.1+  0.0     100807 673  0.4+  0.3-    100807 151  0.7-  0.6+
100807 204  0.1-  0.0     100807 673  0.1-  0.1-    100807 151  0.3-  0.9+

Ephemeris:
2010 PM10                a,e,i = 2.11, 0.42, 1                   q = 1.2115
Date    TT    R. A. (2000) Decl.     Delta      r     Elong.  Phase     V
2010 08 02    23 44.73   -00 38.6    0.433    1.349   133.2    33.3    19.9
2010 08 12    00 06.41   +02 30.5    0.372    1.309   136.6    32.2    19.5
2010 08 22    00 28.70   +05 53.8    0.323    1.275   139.7    30.9    19.1
2010 09 01    00 51.42   +09 26.0    0.285    1.248   142.7    29.4    18.7
2010 09 11    01 13.82   +12 55.4    0.257    1.228   145.8    27.4    18.4
2010 09 21    01 34.87   +16 06.3    0.238    1.215   149.4    24.9    18.2
2010 10 01    01 53.30   +18 42.2    0.229    1.211   153.8    21.4    18.0
2010 10 11    02 07.84   +20 30.1    0.230    1.216   159.4    16.8    17.8
2010 10 21    02 18.37   +21 28.0    0.239    1.229   165.9    11.4    17.7
2010 10 31    02 25.75   +21 43.6    0.259    1.250   172.1     6.3    17.7
2010 11 10    02 31.47   +21 31.5    0.290    1.278   172.0     6.2    18.0
2010 11 20    02 37.37   +21 09.0    0.333    1.313   165.1    11.1    18.6
2010 11 30    02 44.58   +20 49.3    0.388    1.353   157.1    16.5    19.2
2010 12 10    02 53.64   +20 39.5    0.457    1.397   149.2    21.2    19.8
2010 12 20    03 04.77   +20 42.2    0.538    1.445   141.6    25.0    20.3
2010 12 30    03 17.74   +20 55.9    0.632    1.496   134.5    28.0    20.8
2011 01 09    03 32.32   +21 17.9    0.737    1.548   127.7    30.2    21.3
2011 01 19    03 48.28   +21 45.0    0.853    1.602   121.3    31.7    21.7
2011 01 29    04 05.31   +22 13.8    0.980    1.657   115.1    32.6    22.1
2011 02 08    04 23.22   +22 41.8    1.115    1.713   109.1    33.0    22.5
2011 02 18    04 41.82   +23 06.6    1.257    1.768   103.3    32.9    22.8
2011 02 28    05 00.92   +23 26.4    1.406    1.824    97.6    32.6    23.1

Carl W. Hergenrother         (C) Copyright 2010 MPC           M.P.E.C. 2010-P39

Read MPEC 2010-P38 Read MPEC 2010-P40


MPEC number:

Enter an MPEC number in one of the following forms:

  • 1997-B01 (the full form)
  • J97B01 (the packed version of the full form)
  • B01 (the abbreviated form)

Valid HTML 4.01!